Карточка аэропорта UATG

Внимание!
Информация на этой странице в стадии наполнения.
Если вы не увидели какой-то информации, или заметили неточность - пожалуйста сообщите нам!
Спасибо!
Команда RU-STAFF
Название аэропортаАтырау
Название аэропорта (англ.)Atyrau
Превышение-72 ft. (-21.9 m.)
Координаты47°7.332', 51°49.764'
Высота перехода10000ft
Эшелон переходаFL120, QNH<733:FL130
Коды ответчика3450-3457, 3560-3567
Зона ОрВДАктобе РПИ (UATT)
Данные METARUATG 131530Z 24005MPS 9999 SCT033CB 17/13 Q1009 NOSIG RMK QFE759/1012
Проноз погоды (TAF)UATG 131100Z 1312/1412 27007G12MPS 9999 BKN030CB TX20/1410Z TN09/1403Z TEMPO 1312/1315 5000 -SHRA BKN025CB PROB40 TEMPO 1312/1315 TS BECMG 1317/1319 32007MPS SCT033CB BECMG 1322/1324 VRB02MPS
NOTAMshow/hide NOTAM
AWOS   TABLE

Информация о ВПП

ВПП Длина ВПП (м.) Покрытие Курс ВПП Частота ILS
323000Асфальтобетон329108.3
143000Асфальтобетон149109.9

Диспетчерские позиции

Позывной Наименование органа УВД Частота
UATG_APPАтырау Подход123.7
UATG_TWRАтырау Вышка118.1



Спутниковое изображение